23:22
Airports
History
Links
Donate
Help keep this website running!
PayPal
Bitcoin
This page is community maintained. The information is intended for PC simulator navigation or reference.
Always use approved charts for navigation.
ME84
Banks
Banks (ME84)
Swans Island, Maine, United States (4685)
4
Lat/Lng:44° 9' 55.29" N / 68° 25' 40.07" W
44.165359 / -68.427796
Elevation:100'ft / 30mMSL
ID / ICAO:ME84
Runways:1
Longest:09-27
Gravel 451m / 1,478ft
Nearby Weather22:56 GMT 2017-10-20
Nearby weather at KBHB, Hancock County-bar Harbor located 19.9 nautical miles from ME84
Altimeter: 29.97
Visibility: 10.0 statute miles
Wind: 5 knots (from 310°)
Temp: 15°c / 59°f
Humidity: 41.4%

METAR: KBHB 202256Z AUTO 31005KT 10SM CLR 15/02 A2997 RMK AO2 SLP153 T01500022 PNO $

(Powered by phpweather)
Nearby VORs <50NM
Nearby NDBs
Runway 09 / 27
Dimensions:450.6 x 9.1m 1478' x 30'ft
Surface:Gravel
Runway 09 [A]Runway 27 [B]
Heading:070°TH 250°TH
Lat:
Lng:
44° 9' 52.88"N
68° 25' 49.83"W
44° 9' 57.71"N
68° 25' 30.31"W
User Notes and Comments
44° 9' 55.29" N / 68° 25' 40.07" W
Distance To
Airport ID:
Nearby Airports
(U) Stonington Muni 12.5 NM
93B W 272°
(U) Hancock County-bar Harbor 19.9 NM
KBHB ( WX ) N
(R) Vinalhaven 20.4 NM
ME55 WSW 251°
4 Blue Hill 20.7 NM
07B NNW 340°
(R) Witherspoons Landing Strip, In 22.3 NM
ME41 W 267°
(U) Islesboro 25.7 NM
57B WNW 291°
(U) Belfast Muni 33.4 NM
KBST WNW 300°
VFR Chart
Flight Planning at SkyVector.com